SR1NRS Weather Reports


time (UTC)temp
C
wind
direction
speed
KPH
gust
KPH
rain 1hr
cm
rain 24hr
cm
rain mn
cm
humidity
%
barometer
mb
20260504223123 12 207 1.6 1.6 0.00 0.00 0.00 73 1011.2
20260504222624 12 212 1.6 1.6 0.00 0.00 0.00 73 1011.2
20260504222124 12 207 0.0 0.0 0.00 0.00 0.00 73 1011.2
20260504221623 12 205 0.0 1.6 0.00 0.00 0.00 72 1011.2
20260504220644 12 206 1.6 1.6 0.00 0.00 0.00 72 1011.2
20260504220123 13 213 0.0 0.0 0.00 0.00 0.00 72 1011.2
20260504215623 13 208 0.0 0.0 0.00 0.00 0.00 72 1011.2
20260504215123 13 233 0.0 1.6 0.00 0.00 0.00 72 1011.2
20260504214623 13 183 0.0 1.6 0.00 0.00 0.00 72 1011.2
20260504214123 13 193 1.6 1.6 0.00 0.00 0.00 72 1011.5
20260504213623 13 193 1.6 1.6 0.00 0.00 0.00 72 1011.2
20260504213124 13 223 0.0 0.0 0.00 0.00 0.00 71 1011.5
20260504212623 13 188 0.0 0.0 0.00 0.00 0.00 71 1011.5
20260504212124 13 204 0.0 1.6 0.00 0.00 0.00 71 1011.2
20260504211624 13 179 0.0 0.0 0.00 0.00 0.00 71 1011.2
20260504211123 13 297 1.6 1.6 0.00 0.00 0.00 71 1011.2
20260504210623 13 292 1.6 3.2 0.00 0.00 0.00 70 1011.5
20260504210123 13 218 0.0 0.0 0.00 0.00 0.00 70 1011.5
20260504205623 13 262 3.2 3.2 0.00 0.00 0.00 70 1011.5
20260504205126 13 169 0.0 0.0 0.00 0.00 0.00 70 1011.9
20260504204623 13 190 1.6 1.6 0.00 0.00 0.00 69 1011.5
20260504204124 13 200 0.0 0.0 0.00 0.00 0.00 69 1011.5
20260504203623 13 260 1.6 1.6 0.00 0.00 0.00 69 1011.5
20260504203124 13 204 0.0 0.0 0.00 0.00 0.00 68 1011.5
20260504202624 13 235 1.6 1.6 0.00 0.00 0.00 68 1011.5
20260504202124 14 153 1.6 3.2 0.00 0.00 0.00 68 1011.5
20260504201623 14 206 0.0 1.6 0.00 0.00 0.00 68 1011.5
20260504201123 14 272 3.2 3.2 0.00 0.00 0.00 68 1011.5
20260504200624 14 235 0.0 0.0 0.00 0.00 0.00 68 1011.5
20260504200123 14 329 3.2 3.2 0.00 0.00 0.00 68 1011.9
20260504195623 14 71 3.2 4.8 0.00 0.00 0.00 68 1011.9
20260504195123 14 235 3.2 3.2 0.00 0.00 0.00 68 1011.9
20260504194623 14 246 3.2 4.8 0.00 0.00 0.00 67 1011.9
20260504194123 15 14 6.4 9.7 0.00 0.00 0.00 67 1011.9
20260504193625 15 204 1.6 1.6 0.00 0.00 0.00 67 1011.5
20260504193124 15 286 3.2 8.0 0.00 0.00 0.00 66 1011.9
20260504192623 15 237 3.2 4.8 0.00 0.00 0.00 66 1011.5
20260504192123 15 218 1.6 3.2 0.00 0.00 0.00 65 1011.5
20260504191623 15 193 1.6 3.2 0.00 0.00 0.00 65 1011.9
20260504191123 15 148 1.6 1.6 0.00 0.00 0.00 64 1011.5
20260504190623 15 300 4.8 8.0 0.00 0.00 0.00 64 1011.5
20260504190123 16 288 8.0 12.9 0.00 0.00 0.00 63 1011.2
20260504185623 16 250 1.6 3.2 0.00 0.00 0.00 63 1011.2
20260504184645 16 292 3.2 4.8 0.00 0.00 0.00 62 1011.2
20260504184124 16 326 4.8 8.0 0.00 0.00 0.00 61 1011.2
20260504183623 16 354 4.8 9.7 0.00 0.00 0.00 61 1011.2
20260504183123 16 256 1.6 3.2 0.00 0.00 0.00 61 1011.2
20260504182623 16 193 1.6 3.2 0.00 0.00 0.00 61 1010.8
20260504182123 17 248 1.6 4.8 0.00 0.00 0.00 61 1010.8
20260504181623 17 45 3.2 4.8 0.00 0.00 0.00 61 1010.8
20260504181123 17 17 6.4 9.7 0.00 0.00 0.00 61 1011.2
20260504180624 17 53 4.8 8.0 0.00 0.00 0.00 61 1010.8
20260504180125 17 226 1.6 3.2 0.00 0.00 0.00 61 1011.2
20260504175624 17 348 4.8 4.8 0.00 0.00 0.00 61 1010.5
20260504175124 17 302 3.2 4.8 0.00 0.00 0.00 61 1010.8
20260504174624 17 355 3.2 3.2 0.00 0.00 0.00 60 1010.8
20260504174123 17 234 0.0 1.6 0.00 0.00 0.00 60 1010.5
20260504173624 18 354 4.8 9.7 0.00 0.00 0.00 60 1010.8
20260504173123 18 251 0.0 1.6 0.00 0.00 0.00 59 1010.5
20260504172624 18 226 3.2 4.8 0.00 0.00 0.00 59 1010.5
20260504172124 18 21 4.8 4.8 0.00 0.00 0.00 58 1010.5
20260504171623 18 308 8.0 11.3 0.00 0.00 0.00 58 1010.2
20260504171124 18 343 6.4 9.7 0.00 0.00 0.00 57 1010.5
20260504170624 19 337 6.4 12.9 0.00 0.00 0.00 56 1010.5
20260504170123 20 210 1.6 1.6 0.00 0.00 0.00 54 1010.5
20260504160124 21 335 6.4 8.0 0.00 0.00 0.00 49 1010.2
20260504151124 21 316 6.4 8.0 0.00 0.00 0.00 46 1010.5
20260504150623 21 216 1.6 4.8 0.00 0.00 0.00 47 1010.2
20260504150124 21 337 11.3 12.9 0.00 0.00 0.00 46 1010.5
20260504141124 22 328 4.8 4.8 0.00 0.00 0.00 43 1010.5
20260504140623 21 337 11.3 14.5 0.00 0.00 0.00 45 1010.5
20260504140123 22 341 11.3 16.1 0.00 0.00 0.00 44 1010.2
20260504130623 22 236 8.0 14.5 0.00 0.00 0.00 44 1010.2
20260504130123 21 242 4.8 9.7 0.00 0.00 0.00 45 1010.2
20260504120125 21 239 9.7 11.3 0.00 0.00 0.00 47 1010.5
20260504110623 20 261 9.7 11.3 0.00 0.00 0.00 50 1010.5
20260504110123 20 234 3.2 8.0 0.00 0.00 0.00 48 1010.5
20260504100123 20 274 9.7 14.5 0.00 0.00 0.00 48 1010.8
20260504090123 20 206 9.7 14.5 0.00 0.00 0.00 52 1010.8
20260504081623 19 268 14.5 20.9 0.00 0.00 0.00 57 1010.5
20260504081123 18 261 8.0 9.7 0.00 0.00 0.00 57 1010.5
20260504080625 19 226 8.0 11.3 0.00 0.00 0.00 56 1010.5
20260504080124 18 263 6.4 11.3 0.00 0.00 0.00 57 1010.5
20260504070123 18 301 8.0 11.3 0.00 0.00 0.00 57 1009.8
20260504060123 16 229 4.8 8.0 0.00 0.00 0.00 59 1010.2
20260504050623 16 228 6.4 8.0 0.00 0.00 0.00 55 1009.5
20260504050123 16 211 3.2 4.8 0.00 0.00 0.00 55 1009.5
20260504045623 16 189 3.2 4.8 0.00 0.00 0.00 54 1009.5
20260504045124 16 240 4.8 4.8 0.00 0.00 0.00 54 1009.5
20260504044623 16 247 1.6 3.2 0.00 0.00 0.00 54 1009.1
20260504044123 16 210 3.2 3.2 0.00 0.00 0.00 54 1009.5
20260504043623 16 221 3.2 3.2 0.00 0.00 0.00 54 1009.5
20260504043123 16 218 0.0 0.0 0.00 0.00 0.00 53 1009.5
20260504042624 16 232 1.6 3.2 0.00 0.00 0.00 53 1009.1
20260504042123 16 218 6.4 8.0 0.00 0.00 0.00 54 1009.1
20260504041623 16 171 1.6 3.2 0.00 0.00 0.00 54 1009.1
20260504041123 16 209 1.6 3.2 0.00 0.00 0.00 54 1009.1
20260504040623 16 163 3.2 3.2 0.00 0.00 0.00 54 1009.1
20260504040124 16 225 3.2 3.2 0.00 0.00 0.00 53 1009.1
20260504035624 16 222 4.8 4.8 0.00 0.00 0.00 53 1009.1
20260504035124 16 215 0.0 1.6 0.00 0.00 0.00 52 1009.1
20260504034623 16 243 3.2 4.8 0.00 0.00 0.00 52 1009.1
20260504034123 16 216 1.6 1.6 0.00 0.00 0.00 52 1009.1
20260504033623 16 217 4.8 4.8 0.00 0.00 0.00 52 1009.1
20260504033123 16 227 3.2 3.2 0.00 0.00 0.00 52 1009.1
20260504032623 16 223 1.6 3.2 0.00 0.00 0.00 52 1008.8
20260504032123 16 214 0.0 0.0 0.00 0.00 0.00 52 1009.1
20260504031623 16 214 1.6 1.6 0.00 0.00 0.00 52 1009.1
20260504031123 17 226 3.2 3.2 0.00 0.00 0.00 51 1009.1
20260504030623 17 212 1.6 3.2 0.00 0.00 0.00 51 1008.8
20260504030124 17 202 1.6 1.6 0.00 0.00 0.00 51 1008.8
20260504025623 17 218 1.6 1.6 0.00 0.00 0.00 51 1008.5
20260504025124 17 220 1.6 1.6 0.00 0.00 0.00 51 1008.5
20260504024623 17 207 0.0 1.6 0.00 0.00 0.00 50 1008.8
20260504024125 17 219 0.0 0.0 0.00 0.00 0.00 50 1008.5
20260504023623 17 234 1.6 1.6 0.00 0.00 0.00 49 1008.5
20260504023124 17 215 1.6 3.2 0.00 0.00 0.00 50 1008.8
20260504022623 17 219 0.0 0.0 0.00 0.00 0.00 49 1008.5
20260504022123 17 213 1.6 1.6 0.00 0.00 0.00 49 1008.5
20260504021624 17 222 1.6 1.6 0.00 0.00 0.00 49 1008.5
20260504021124 17 221 3.2 3.2 0.00 0.00 0.00 49 1008.5
20260504020624 17 221 3.2 3.2 0.00 0.00 0.00 48 1008.5
20260504020124 17 209 0.0 0.0 0.00 0.00 0.00 47 1008.5
20260504015623 17 194 1.6 3.2 0.00 0.00 0.00 47 1008.5
20260504015123 17 217 3.2 3.2 0.00 0.00 0.00 47 1008.5
20260504014623 17 209 1.6 1.6 0.00 0.00 0.00 47 1008.5
20260504014124 18 202 1.6 1.6 0.00 0.00 0.00 46 1008.5
20260504013623 18 230 3.2 3.2 0.00 0.00 0.00 46 1008.5
20260504013124 18 224 1.6 3.2 0.00 0.00 0.00 45 1008.5
20260504012624 18 203 0.0 1.6 0.00 0.00 0.00 46 1008.5
20260504012123 18 223 1.6 1.6 0.00 0.00 0.00 45 1008.1
20260504011623 18 206 1.6 1.6 0.00 0.00 0.00 45 1008.1
20260504011124 18 213 1.6 1.6 0.00 0.00 0.00 45 1008.5
20260504010623 18 213 3.2 4.8 0.00 0.00 0.00 44 1008.1
20260504010124 18 214 3.2 3.2 0.00 0.00 0.00 43 1008.1
20260504005623 19 215 0.0 0.0 0.00 0.00 0.00 42 1008.1
20260504005123 19 221 3.2 3.2 0.00 0.00 0.00 41 1008.1
20260504004624 19 223 4.8 8.0 0.00 0.00 0.00 41 1008.1
20260504004123 19 224 1.6 3.2 0.00 0.00 0.00 41 1008.5
20260504003627 19 243 3.2 3.2 0.00 0.00 0.00 40 1008.1
20260504003123 20 220 1.6 3.2 0.00 0.00 0.00 39 1008.1
20260504002623 20 214 1.6 1.6 0.00 0.00 0.00 39 1008.5
20260504002123 20 258 1.6 3.2 0.00 0.00 0.00 38 1008.5
20260504001623 20 262 3.2 4.8 0.00 0.00 0.00 38 1008.5
20260504001123 20 220 3.2 3.2 0.00 0.00 0.00 38 1008.5
20260504000623 20 242 4.8 4.8 0.00 0.00 0.00 38 1008.5
20260504000123 20 215 1.6 1.6 0.00 0.00 0.00 38 1008.5
20260503235623 20 221 0.0 0.0 0.00 0.00 0.00 38 1008.5
20260503235123 20 217 0.0 0.0 0.00 0.00 0.00 39 1008.1
20260503234623 20 200 4.8 4.8 0.00 0.00 0.00 39 1008.5
20260503234123 19 219 1.6 1.6 0.00 0.00 0.00 39 1008.1
20260503233623 19 237 0.0 0.0 0.00 0.00 0.00 40 1008.1
20260503233123 18 244 1.6 3.2 0.00 0.00 0.00 42 1008.5
20260503232623 18 222 0.0 0.0 0.00 0.00 0.00 44 1008.1
20260503232124 17 271 1.6 3.2 0.00 0.00 0.00 49 1008.5
20260503231624 17 264 1.6 1.6 0.00 0.00 0.00 50 1008.5
20260503231123 17 299 1.6 3.2 0.00 0.00 0.00 50 1008.5
20260503230624 17 224 1.6 1.6 0.00 0.00 0.00 50 1008.5
20260503230123 17 231 1.6 3.2 0.00 0.00 0.00 51 1008.1
20260503225624 17 223 1.6 3.2 0.00 0.00 0.00 51 1008.5
20260503225124 17 248 3.2 4.8 0.00 0.00 0.00 51 1008.5
20260503224623 17 218 0.0 1.6 0.00 0.00 0.00 52 1008.5
20260503224123 17 269 4.8 4.8 0.00 0.00 0.00 53 1008.8
20260503223624 17 218 1.6 3.2 0.00 0.00 0.00 53 1008.5